Time,TemperatureF,DewpointF,PressureIn,WindDirection,WindDirectionDegrees,WindSpeedMPH,WindSpeedGustMPH,Humidity,HourlyPrecipIn,Conditions,Clouds,dailyrainin,SolarRadiationWatts/m^2,SoftwareType,DateUTC
2013-05-20 00:00:00,69.2,65.5,29.86,ESE,118,0.0,0.0,88,0.00,,---,0.00,0.00,VWS V14.01,2013-05-20 04:00:00,
2013-05-20 00:01:00,69.2,65.5,29.86,ESE,119,0.0,0.0,88,0.00,,---,0.00,0.00,VWS V14.01,2013-05-20 04:01:00,
2013-05-20 00:05:00,69.4,65.7,29.86,South,175,1.0,6.0,88,0.00,,---,0.00,0.00,VWS V14.01,2013-05-20 04:05:00,
2013-05-20 00:06:00,69.4,65.7,29.86,South,175,0.0,1.0,88,0.00,,---,0.00,0.00,VWS V14.01,2013-05-20 04:06:00,
2013-05-20 00:10:00,69.5,65.8,29.86,SE,135,3.0,4.0,88,0.00,,---,0.00,0.00,VWS V14.01,2013-05-20 04:10:00,
2013-05-20 00:11:00,69.6,65.9,29.86,ESE,110,0.0,3.0,88,0.00,,---,0.00,0.00,VWS V14.01,2013-05-20 04:11:00,
2013-05-20 00:15:00,69.7,66.0,29.85,SE,126,4.0,7.0,88,0.00,,---,0.00,0.00,VWS V14.01,2013-05-20 04:15:00,
2013-05-20 00:16:00,69.8,66.1,29.85,East,88,0.0,4.0,88,0.00,,---,0.00,0.00,VWS V14.01,2013-05-20 04:16:00,
2013-05-20 00:20:00,69.8,66.1,29.85,SE,137,1.0,5.0,88,0.00,,---,0.00,0.00,VWS V14.01,2013-05-20 04:20:00,
2013-05-20 00:21:00,69.9,65.9,29.85,SSE,148,1.0,5.0,87,0.00,,---,0.00,0.00,VWS V14.01,2013-05-20 04:21:00,
2013-05-20 00:25:00,69.9,65.9,29.85,SSE,159,0.0,5.0,87,0.00,,---,0.00,0.00,VWS V14.01,2013-05-20 04:25:00,
2013-05-20 00:26:00,69.8,65.8,29.85,SSE,167,2.0,4.0,87,0.00,,---,0.00,0.00,VWS V14.01,2013-05-20 04:26:00,
2013-05-20 00:30:00,69.8,65.8,29.85,SE,139,1.0,4.0,87,0.00,,---,0.00,0.00,VWS V14.01,2013-05-20 04:30:00,
2013-05-20 00:31:00,69.8,65.8,29.85,ESE,103,3.0,6.0,87,0.00,,---,0.00,0.00,VWS V14.01,2013-05-20 04:31:00,
2013-05-20 00:35:00,69.8,66.1,29.85,ESE,121,3.0,8.0,88,0.00,,---,0.00,0.00,VWS V14.01,2013-05-20 04:35:00,
2013-05-20 00:36:00,69.8,66.1,29.86,SSE,151,3.0,5.0,88,0.00,,---,0.00,0.00,VWS V14.01,2013-05-20 04:36:00,
2013-05-20 00:40:00,69.7,66.0,29.86,SSE,160,0.0,5.0,88,0.00,,---,0.00,0.00,VWS V14.01,2013-05-20 04:40:00,
2013-05-20 00:41:00,69.7,66.0,29.86,SE,134,1.0,3.0,88,0.00,,---,0.00,0.00,VWS V14.01,2013-05-20 04:41:00,
2013-05-20 00:45:00,69.6,65.9,29.85,ESE,105,0.0,4.0,88,0.00,,---,0.00,0.00,VWS V14.01,2013-05-20 04:45:00,
2013-05-20 00:46:00,69.6,65.9,29.86,ESE,109,2.0,2.0,88,0.00,,---,0.00,0.00,VWS V14.01,2013-05-20 04:46:00,
2013-05-20 00:50:00,69.5,65.8,29.85,SE,142,0.0,4.0,88,0.00,,---,0.00,0.00,VWS V14.01,2013-05-20 04:50:00,
2013-05-20 00:51:00,69.5,65.8,29.86,SSE,150,2.0,2.0,88,0.00,,---,0.00,0.00,VWS V14.01,2013-05-20 04:51:00,
2013-05-20 00:55:00,69.4,65.7,29.85,SSE,153,0.0,5.0,88,0.00,,---,0.00,0.00,VWS V14.01,2013-05-20 04:55:00,
2013-05-20 00:56:00,69.4,65.7,29.85,SSE,153,0.0,1.0,88,0.00,,---,0.00,0.00,VWS V14.01,2013-05-20 04:56:00,
2013-05-20 01:00:00,69.3,65.6,29.86,SSE,153,0.0,2.0,88,0.00,,---,0.00,0.00,VWS V14.01,2013-05-20 05:00:00,
2013-05-20 01:01:00,69.3,65.6,29.86,SSE,153,0.0,1.0,88,0.00,,---,0.00,0.00,VWS V14.01,2013-05-20 05:01:00,
2013-05-20 01:05:00,69.2,65.5,29.86,SE,143,3.0,3.0,88,0.00,,---,0.00,0.00,VWS V14.01,2013-05-20 05:05:00,
2013-05-20 01:06:00,69.2,65.5,29.86,SSE,158,0.0,3.0,88,0.00,,---,0.00,0.00,VWS V14.01,2013-05-20 05:06:00,
2013-05-20 01:10:00,69.1,65.4,29.86,SSE,158,0.0,3.0,88,0.00,,---,0.00,0.00,VWS V14.01,2013-05-20 05:10:00,
2013-05-20 01:11:00,69.1,65.4,29.86,SSE,159,0.0,4.0,88,0.00,,---,0.00,0.00,VWS V14.01,2013-05-20 05:11:00,
2013-05-20 01:15:00,69.0,65.3,29.86,ESE,115,0.0,4.0,88,0.00,,---,0.00,0.00,VWS V14.01,2013-05-20 05:15:00,
2013-05-20 01:16:00,68.9,65.2,29.86,ESE,115,0.0,2.0,88,0.00,,---,0.00,0.00,VWS V14.01,2013-05-20 05:16:00,
2013-05-20 01:20:00,68.8,65.4,29.86,SE,133,1.0,4.0,89,0.00,,---,0.00,0.00,VWS V14.01,2013-05-20 05:20:00,
2013-05-20 01:21:00,68.8,65.4,29.86,SE,134,0.0,1.0,89,0.00,,---,0.00,0.00,VWS V14.01,2013-05-20 05:21:00,
2013-05-20 01:25:00,68.7,65.3,29.86,SE,134,0.0,3.0,89,0.00,,---,0.00,0.00,VWS V14.01,2013-05-20 05:25:00,
2013-05-20 01:26:00,68.7,65.3,29.86,SE,134,1.0,1.0,89,0.00,,---,0.00,0.00,VWS V14.01,2013-05-20 05:26:00,
2013-05-20 01:30:00,68.6,65.2,29.86,SSE,158,0.0,3.0,89,0.00,,---,0.00,0.00,VWS V14.01,2013-05-20 05:30:00,
2013-05-20 01:32:00,68.6,65.2,29.86,SSE,158,1.0,1.0,89,0.00,,---,0.00,0.00,VWS V14.01,2013-05-20 05:32:00,
2013-05-20 01:35:00,68.5,65.1,29.86,SE,138,0.0,4.0,89,0.00,,---,0.00,0.00,VWS V14.01,2013-05-20 05:35:00,
2013-05-20 01:37:00,68.5,65.1,29.86,SE,138,0.0,0.0,89,0.00,,---,0.00,0.00,VWS V14.01,2013-05-20 05:37:00,
2013-05-20 01:40:00,68.4,65.0,29.86,SE,140,0.0,3.0,89,0.00,,---,0.00,0.00,VWS V14.01,2013-05-20 05:40:00,
2013-05-20 01:42:00,68.4,65.0,29.86,SE,140,0.0,1.0,89,0.00,,---,0.00,0.00,VWS V14.01,2013-05-20 05:42:00,
2013-05-20 01:45:00,68.3,65.3,29.86,South,178,0.0,6.0,90,0.00,,---,0.00,0.00,VWS V14.01,2013-05-20 05:45:00,
2013-05-20 01:47:00,68.3,65.3,29.86,South,178,0.0,3.0,90,0.00,,---,0.00,0.00,VWS V14.01,2013-05-20 05:47:00,
2013-05-20 01:50:00,68.2,65.2,29.86,South,178,0.0,3.0,90,0.00,,---,0.00,0.00,VWS V14.01,2013-05-20 05:50:00,
2013-05-20 01:52:00,68.2,65.2,29.86,South,178,0.0,0.0,90,0.00,,---,0.00,0.00,VWS V14.01,2013-05-20 05:52:00,
2013-05-20 01:55:00,68.1,65.1,29.86,South,178,0.0,0.0,90,0.00,,---,0.00,0.00,VWS V14.01,2013-05-20 05:55:00,
2013-05-20 01:57:00,68.1,65.1,29.86,South,178,0.0,0.0,90,0.00,,---,0.00,0.00,VWS V14.01,2013-05-20 05:57:00,
2013-05-20 02:00:00,68.0,65.0,29.86,South,178,1.0,1.0,90,0.00,,---,0.00,0.00,VWS V14.01,2013-05-20 06:00:00,
2013-05-20 02:02:00,67.9,64.9,29.86,South,178,0.0,1.0,90,0.00,,---,0.00,0.00,VWS V14.01,2013-05-20 06:02:00,
2013-05-20 02:05:00,67.9,64.9,29.86,South,178,0.0,3.0,90,0.00,,---,0.00,0.00,VWS V14.01,2013-05-20 06:05:00,
2013-05-20 02:07:00,67.9,64.9,29.86,South,178,0.0,0.0,90,0.00,,---,0.00,0.00,VWS V14.01,2013-05-20 06:07:00,
2013-05-20 02:10:00,67.8,65.1,29.86,South,178,0.0,1.0,91,0.00,,---,0.00,0.00,VWS V14.01,2013-05-20 06:10:00,
2013-05-20 02:12:00,67.7,65.0,29.86,South,178,0.0,0.0,91,0.00,,---,0.00,0.00,VWS V14.01,2013-05-20 06:12:00,
2013-05-20 02:15:00,67.7,65.0,29.86,South,178,1.0,1.0,91,0.00,,---,0.00,0.00,VWS V14.01,2013-05-20 06:15:00,
2013-05-20 02:17:00,67.7,65.0,29.86,South,177,0.0,3.0,91,0.00,,---,0.00,0.00,VWS V14.01,2013-05-20 06:17:00,
2013-05-20 02:20:00,67.6,64.9,29.86,South,177,0.0,3.0,91,0.00,,---,0.00,0.00,VWS V14.01,2013-05-20 06:20:00,
2013-05-20 02:22:00,67.6,64.9,29.86,South,177,0.0,2.0,91,0.00,,---,0.00,0.00,VWS V14.01,2013-05-20 06:22:00,
2013-05-20 02:25:00,67.5,64.8,29.86,South,177,3.0,3.0,91,0.00,,---,0.00,0.00,VWS V14.01,2013-05-20 06:25:00,
2013-05-20 02:27:00,67.5,64.8,29.86,South,177,0.0,3.0,91,0.00,,---,0.00,0.00,VWS V14.01,2013-05-20 06:27:00,
2013-05-20 02:30:00,67.4,64.7,29.86,South,177,0.0,3.0,91,0.00,,---,0.00,0.00,VWS V14.01,2013-05-20 06:30:00,
2013-05-20 02:32:00,67.3,64.6,29.86,South,177,0.0,1.0,91,0.00,,---,0.00,0.00,VWS V14.01,2013-05-20 06:32:00,
2013-05-20 02:35:00,67.3,64.9,29.86,South,177,0.0,1.0,92,0.00,,---,0.00,0.00,VWS V14.01,2013-05-20 06:35:00,
2013-05-20 02:37:00,67.3,64.9,29.85,South,177,0.0,1.0,92,0.00,,---,0.00,0.00,VWS V14.01,2013-05-20 06:37:00,
2013-05-20 02:40:00,67.2,64.8,29.85,South,177,0.0,1.0,92,0.00,,---,0.00,0.00,VWS V14.01,2013-05-20 06:40:00,
2013-05-20 02:42:00,67.2,64.8,29.85,South,177,0.0,1.0,92,0.00,,---,0.00,0.00,VWS V14.01,2013-05-20 06:42:00,
2013-05-20 02:45:00,67.1,64.7,29.85,South,174,1.0,4.0,92,0.00,,---,0.00,0.00,VWS V14.01,2013-05-20 06:45:00,
2013-05-20 02:47:00,67.0,64.6,29.85,South,174,1.0,2.0,92,0.00,,---,0.00,0.00,VWS V14.01,2013-05-20 06:47:00,
2013-05-20 02:50:00,67.0,64.6,29.85,South,174,0.0,3.0,92,0.00,,---,0.00,0.00,VWS V14.01,2013-05-20 06:50:00,
2013-05-20 02:52:00,67.0,64.9,29.85,SSE,159,3.0,4.0,93,0.00,,---,0.00,0.00,VWS V14.01,2013-05-20 06:52:00,
2013-05-20 02:55:00,67.0,64.9,29.85,SSE,153,0.0,4.0,93,0.00,,---,0.00,0.00,VWS V14.01,2013-05-20 06:55:00,
2013-05-20 02:57:00,67.0,64.9,29.85,ESE,121,0.0,4.0,93,0.00,,---,0.00,0.00,VWS V14.01,2013-05-20 06:57:00,
2013-05-20 03:00:00,67.0,64.9,29.85,SSE,153,0.0,4.0,93,0.00,,---,0.00,0.00,VWS V14.01,2013-05-20 07:00:00,
2013-05-20 03:02:00,67.0,64.9,29.85,SSE,163,1.0,3.0,93,0.00,,---,0.00,0.00,VWS V14.01,2013-05-20 07:02:00,
2013-05-20 03:05:00,67.0,64.9,29.85,SSE,163,0.0,3.0,93,0.00,,---,0.00,0.00,VWS V14.01,2013-05-20 07:05:00,
2013-05-20 03:07:00,67.0,64.9,29.85,SSE,155,4.0,4.0,93,0.00,,---,0.00,0.00,VWS V14.01,2013-05-20 07:07:00,
2013-05-20 03:10:00,66.9,64.8,29.85,ESE,107,3.0,5.0,93,0.00,,---,0.00,0.00,VWS V14.01,2013-05-20 07:10:00,
2013-05-20 03:12:00,66.9,64.8,29.85,SSE,150,1.0,4.0,93,0.00,,---,0.00,0.00,VWS V14.01,2013-05-20 07:12:00,
2013-05-20 03:15:00,66.9,64.8,29.85,SSE,150,0.0,4.0,93,0.00,,---,0.00,0.00,VWS V14.01,2013-05-20 07:15:00,
2013-05-20 03:17:00,66.9,64.8,29.85,SSE,152,0.0,3.0,93,0.00,,---,0.00,0.00,VWS V14.01,2013-05-20 07:17:00,
2013-05-20 03:20:00,66.8,65.0,29.85,SSE,153,0.0,3.0,94,0.00,,---,0.00,0.00,VWS V14.01,2013-05-20 07:20:00,
2013-05-20 03:22:00,66.8,65.0,29.85,SSE,153,0.0,0.0,94,0.00,,---,0.00,0.00,VWS V14.01,2013-05-20 07:22:00,
2013-05-20 03:25:00,66.8,65.0,29.85,SSE,153,0.0,1.0,94,0.00,,---,0.00,0.00,VWS V14.01,2013-05-20 07:25:00,
2013-05-20 03:27:00,66.8,65.0,29.85,SSE,153,1.0,2.0,94,0.00,,---,0.00,0.00,VWS V14.01,2013-05-20 07:27:00,
2013-05-20 03:30:00,66.8,65.0,29.85,SSE,153,0.0,2.0,94,0.00,,---,0.00,0.00,VWS V14.01,2013-05-20 07:30:00,
2013-05-20 03:32:00,66.8,65.0,29.85,South,180,1.0,4.0,94,0.00,,---,0.00,0.00,VWS V14.01,2013-05-20 07:32:00,
2013-05-20 03:35:00,66.7,64.9,29.85,SSE,153,1.0,4.0,94,0.00,,---,0.00,0.00,VWS V14.01,2013-05-20 07:35:00,
2013-05-20 03:37:00,66.7,64.9,29.85,ESE,115,1.0,3.0,94,0.00,,---,0.00,0.00,VWS V14.01,2013-05-20 07:37:00,
2013-05-20 03:40:00,66.7,64.9,29.86,SE,126,0.0,3.0,94,0.00,,---,0.00,0.00,VWS V14.01,2013-05-20 07:40:00,
2013-05-20 03:42:00,66.7,64.9,29.86,SE,126,0.0,1.0,94,0.00,,---,0.00,0.00,VWS V14.01,2013-05-20 07:42:00,
2013-05-20 03:45:00,66.6,64.8,29.86,SE,138,0.0,3.0,94,0.00,,---,0.00,0.00,VWS V14.01,2013-05-20 07:45:00,
2013-05-20 03:47:00,66.6,64.8,29.86,SE,140,2.0,3.0,94,0.00,,---,0.00,0.00,VWS V14.01,2013-05-20 07:47:00,
2013-05-20 03:50:00,66.5,64.7,29.86,SE,140,0.0,3.0,94,0.00,,---,0.00,0.00,VWS V14.01,2013-05-20 07:50:00,
2013-05-20 03:52:00,66.5,64.7,29.86,SE,140,0.0,0.0,94,0.00,,---,0.00,0.00,VWS V14.01,2013-05-20 07:52:00,
2013-05-20 03:55:00,66.4,64.6,29.86,South,188,2.0,4.0,94,0.00,,---,0.00,0.00,VWS V14.01,2013-05-20 07:55:00,
2013-05-20 03:57:00,66.4,64.6,29.87,South,188,0.0,2.0,94,0.00,,---,0.00,0.00,VWS V14.01,2013-05-20 07:57:00,
2013-05-20 04:00:00,66.3,64.5,29.87,South,188,0.0,2.0,94,0.00,,---,0.00,0.00,VWS V14.01,2013-05-20 08:00:00,
2013-05-20 04:02:00,66.3,64.5,29.87,South,188,0.0,0.0,94,0.00,,---,0.00,0.00,VWS V14.01,2013-05-20 08:02:00,
2013-05-20 04:05:00,66.2,64.4,29.87,South,188,0.0,2.0,94,0.00,,---,0.00,0.00,VWS V14.01,2013-05-20 08:05:00,
2013-05-20 04:07:00,66.1,64.3,29.88,South,188,0.0,1.0,94,0.00,,---,0.00,0.00,VWS V14.01,2013-05-20 08:07:00,
2013-05-20 04:10:00,66.1,64.3,29.87,South,188,0.0,1.0,94,0.00,,---,0.00,0.00,VWS V14.01,2013-05-20 08:10:00,
2013-05-20 04:12:00,66.1,64.3,29.87,South,188,0.0,0.0,94,0.00,,---,0.00,0.00,VWS V14.01,2013-05-20 08:12:00,
2013-05-20 04:15:00,66.0,64.2,29.87,South,188,0.0,0.0,94,0.00,,---,0.00,0.00,VWS V14.01,2013-05-20 08:15:00,
2013-05-20 04:17:00,66.0,64.2,29.87,South,188,0.0,0.0,94,0.00,,---,0.00,0.00,VWS V14.01,2013-05-20 08:17:00,
2013-05-20 04:20:00,65.9,64.1,29.87,South,188,0.0,0.0,94,0.00,,---,0.00,0.00,VWS V14.01,2013-05-20 08:20:00,
2013-05-20 04:22:00,65.9,64.1,29.87,South,188,0.0,0.0,94,0.00,,---,0.00,0.00,VWS V14.01,2013-05-20 08:22:00,
2013-05-20 04:25:00,65.8,64.0,29.87,South,188,0.0,0.0,94,0.00,,---,0.00,0.00,VWS V14.01,2013-05-20 08:25:00,
2013-05-20 04:27:00,65.7,63.9,29.87,South,188,0.0,0.0,94,0.00,,---,0.00,0.00,VWS V14.01,2013-05-20 08:27:00,
2013-05-20 04:30:00,65.7,63.9,29.87,South,188,0.0,0.0,94,0.00,,---,0.00,0.00,VWS V14.01,2013-05-20 08:30:00,
2013-05-20 04:32:00,65.6,63.8,29.87,South,188,0.0,0.0,94,0.00,,---,0.00,0.00,VWS V14.01,2013-05-20 08:32:00,
2013-05-20 04:35:00,65.6,63.8,29.87,South,188,0.0,0.0,94,0.00,,---,0.00,0.00,VWS V14.01,2013-05-20 08:35:00,
2013-05-20 04:37:00,65.5,63.7,29.87,South,188,0.0,0.0,94,0.00,,---,0.00,0.00,VWS V14.01,2013-05-20 08:37:00,
2013-05-20 04:40:00,65.5,63.7,29.87,South,188,0.0,0.0,94,0.00,,---,0.00,0.00,VWS V14.01,2013-05-20 08:40:00,
2013-05-20 04:42:00,65.4,63.6,29.87,South,188,0.0,0.0,94,0.00,,---,0.00,0.00,VWS V14.01,2013-05-20 08:42:00,
2013-05-20 04:45:00,65.3,63.5,29.87,South,188,0.0,0.0,94,0.00,,---,0.00,0.00,VWS V14.01,2013-05-20 08:45:00,
2013-05-20 04:47:00,65.2,63.4,29.87,South,188,0.0,0.0,94,0.00,,---,0.00,0.00,VWS V14.01,2013-05-20 08:47:00,
2013-05-20 04:50:00,65.1,63.3,29.87,South,188,0.0,0.0,94,0.00,,---,0.00,0.00,VWS V14.01,2013-05-20 08:50:00,
2013-05-20 04:52:00,65.0,63.2,29.87,South,188,0.0,0.0,94,0.00,,---,0.00,0.00,VWS V14.01,2013-05-20 08:52:00,
2013-05-20 04:55:00,65.0,63.2,29.87,South,188,0.0,0.0,94,0.00,,---,0.00,0.00,VWS V14.01,2013-05-20 08:55:00,
2013-05-20 04:57:00,64.9,63.1,29.87,South,188,0.0,0.0,94,0.00,,---,0.00,0.00,VWS V14.01,2013-05-20 08:57:00,
2013-05-20 05:00:00,64.9,63.1,29.87,South,188,0.0,0.0,94,0.00,,---,0.00,0.00,VWS V14.01,2013-05-20 09:00:00,
2013-05-20 05:02:00,64.8,63.0,29.87,South,188,0.0,0.0,94,0.00,,---,0.00,0.00,VWS V14.01,2013-05-20 09:02:00,
2013-05-20 05:05:00,64.8,63.0,29.87,South,188,0.0,0.0,94,0.00,,---,0.00,0.00,VWS V14.01,2013-05-20 09:05:00,
2013-05-20 05:07:00,64.8,63.3,29.87,South,188,0.0,1.0,95,0.00,,---,0.00,0.00,VWS V14.01,2013-05-20 09:07:00,
2013-05-20 05:10:00,64.8,63.3,29.87,South,188,0.0,1.0,95,0.00,,---,0.00,0.00,VWS V14.01,2013-05-20 09:10:00,
2013-05-20 05:13:00,64.8,63.3,29.87,South,188,0.0,1.0,95,0.00,,---,0.00,0.00,VWS V14.01,2013-05-20 09:13:00,
2013-05-20 05:15:00,64.9,63.4,29.87,South,188,0.0,1.0,95,0.00,,---,0.00,0.00,VWS V14.01,2013-05-20 09:15:00,
2013-05-20 05:18:00,64.9,63.4,29.87,South,188,0.0,2.0,95,0.00,,---,0.00,0.00,VWS V14.01,2013-05-20 09:18:00,
2013-05-20 05:20:00,65.0,63.8,29.87,South,188,0.0,2.0,96,0.00,,---,0.00,0.00,VWS V14.01,2013-05-20 09:20:00,
2013-05-20 05:23:00,65.1,63.9,29.87,South,188,0.0,0.0,96,0.00,,---,0.00,0.00,VWS V14.01,2013-05-20 09:23:00,
2013-05-20 05:25:00,65.2,64.0,29.87,South,188,1.0,3.0,96,0.00,,---,0.00,0.00,VWS V14.01,2013-05-20 09:25:00,
2013-05-20 05:28:00,65.3,64.1,29.87,South,188,0.0,1.0,96,0.00,,---,0.00,0.00,VWS V14.01,2013-05-20 09:28:00,
2013-05-20 05:30:00,65.3,64.1,29.87,South,188,0.0,4.0,96,0.00,,---,0.00,0.00,VWS V14.01,2013-05-20 09:30:00,
2013-05-20 05:33:00,65.4,64.2,29.87,South,188,0.0,1.0,96,0.00,,---,0.00,0.00,VWS V14.01,2013-05-20 09:33:00,
2013-05-20 05:35:00,65.4,64.2,29.87,South,188,1.0,3.0,96,0.00,,---,0.00,0.00,VWS V14.01,2013-05-20 09:35:00,
2013-05-20 05:38:00,65.5,64.3,29.87,SSE,156,1.0,5.0,96,0.00,,---,0.00,0.00,VWS V14.01,2013-05-20 09:38:00,
2013-05-20 05:40:00,65.6,64.4,29.87,SSE,150,3.0,5.0,96,0.00,,---,0.00,0.00,VWS V14.01,2013-05-20 09:40:00,
2013-05-20 05:43:00,65.6,64.4,29.87,SSE,149,1.0,3.0,96,0.00,,---,0.00,0.00,VWS V14.01,2013-05-20 09:43:00,
2013-05-20 05:45:00,65.6,64.4,29.87,South,175,0.0,5.0,96,0.00,,---,0.00,0.00,VWS V14.01,2013-05-20 09:45:00,
2013-05-20 05:48:00,65.6,64.4,29.87,South,175,1.0,3.0,96,0.00,,---,0.00,0.00,VWS V14.01,2013-05-20 09:48:00,
2013-05-20 05:50:00,65.7,64.5,29.87,SSE,157,1.0,3.0,96,0.00,,---,0.00,0.00,VWS V14.01,2013-05-20 09:50:00,
2013-05-20 05:53:00,65.7,64.5,29.87,SSE,168,0.0,2.0,96,0.00,,---,0.00,0.00,VWS V14.01,2013-05-20 09:53:00,
2013-05-20 05:55:00,65.7,64.5,29.87,SSE,167,1.0,3.0,96,0.00,,---,0.00,0.00,VWS V14.01,2013-05-20 09:55:00,
2013-05-20 05:58:00,65.7,64.5,29.87,SSE,163,0.0,3.0,96,0.00,,---,0.00,0.00,VWS V14.01,2013-05-20 09:58:00,
2013-05-20 06:00:00,65.7,64.5,29.87,SSE,163,0.0,3.0,96,0.00,,---,0.00,0.00,VWS V14.01,2013-05-20 10:00:00,
2013-05-20 06:03:00,65.8,64.6,29.87,SSW,192,0.0,4.0,96,0.00,,---,0.00,0.00,VWS V14.01,2013-05-20 10:03:00,
2013-05-20 06:05:00,65.8,64.6,29.87,ESE,123,0.0,4.0,96,0.00,,---,0.00,0.00,VWS V14.01,2013-05-20 10:05:00,
2013-05-20 06:08:00,65.8,64.6,29.88,SSE,157,1.0,3.0,96,0.00,,---,0.00,0.00,VWS V14.01,2013-05-20 10:08:00,
2013-05-20 06:10:00,65.8,64.6,29.88,SSE,151,2.0,3.0,96,0.00,,---,0.00,0.00,VWS V14.01,2013-05-20 10:10:00,
2013-05-20 06:13:00,65.8,64.6,29.88,South,181,0.0,3.0,96,0.00,,---,0.00,0.00,VWS V14.01,2013-05-20 10:13:00,
2013-05-20 06:15:00,65.8,64.6,29.88,SSE,165,1.0,4.0,96,0.00,,---,0.00,0.00,VWS V14.01,2013-05-20 10:15:00,
2013-05-20 06:18:00,65.8,64.6,29.88,SSE,160,0.0,3.0,96,0.00,,---,0.00,0.00,VWS V14.01,2013-05-20 10:18:00,
2013-05-20 06:20:00,65.8,64.9,29.88,SSE,160,0.0,3.0,97,0.00,,---,0.00,5.00,VWS V14.01,2013-05-20 10:20:00,
2013-05-20 06:23:00,65.8,64.9,29.88,SSE,160,0.0,1.0,97,0.00,,---,0.00,5.00,VWS V14.01,2013-05-20 10:23:00,
2013-05-20 06:25:00,65.8,64.9,29.88,SSE,160,2.0,2.0,97,0.00,,---,0.00,7.00,VWS V14.01,2013-05-20 10:25:00,
2013-05-20 06:28:00,65.8,64.9,29.88,SSE,162,0.0,3.0,97,0.00,,---,0.00,7.00,VWS V14.01,2013-05-20 10:28:00,
2013-05-20 06:30:00,65.8,64.9,29.88,SSE,161,0.0,3.0,97,0.00,,---,0.00,7.00,VWS V14.01,2013-05-20 10:30:00,
2013-05-20 06:33:00,65.8,64.9,29.88,SSE,161,0.0,2.0,97,0.00,,---,0.00,11.00,VWS V14.01,2013-05-20 10:33:00,
2013-05-20 06:35:00,65.9,65.0,29.88,SSE,161,0.0,2.0,97,0.00,,---,0.00,11.00,VWS V14.01,2013-05-20 10:35:00,
2013-05-20 06:38:00,65.9,65.0,29.88,SSE,161,0.0,4.0,97,0.00,,---,0.00,12.00,VWS V14.01,2013-05-20 10:38:00,
2013-05-20 06:40:00,65.9,65.0,29.88,SSE,161,2.0,4.0,97,0.00,,---,0.00,12.00,VWS V14.01,2013-05-20 10:40:00,
2013-05-20 06:43:00,65.9,65.0,29.89,SSE,157,1.0,3.0,97,0.00,,---,0.00,14.00,VWS V14.01,2013-05-20 10:43:00,
2013-05-20 06:45:00,65.9,65.0,29.89,SE,126,1.0,3.0,97,0.00,,---,0.00,18.00,VWS V14.01,2013-05-20 10:45:00,
2013-05-20 06:48:00,65.9,65.0,29.89,SE,130,0.0,3.0,97,0.00,,---,0.00,19.00,VWS V14.01,2013-05-20 10:48:00,
2013-05-20 06:50:00,65.9,65.0,29.89,SSE,156,0.0,3.0,97,0.00,,---,0.00,19.00,VWS V14.01,2013-05-20 10:50:00,
2013-05-20 06:53:00,66.0,65.1,29.88,SSE,156,0.0,1.0,97,0.00,,---,0.00,25.00,VWS V14.01,2013-05-20 10:53:00,
2013-05-20 06:55:00,66.0,65.1,29.88,SSE,156,0.0,2.0,97,0.00,,---,0.00,26.00,VWS V14.01,2013-05-20 10:55:00,
2013-05-20 06:58:00,66.0,65.1,29.89,SSE,148,0.0,3.0,97,0.00,,---,0.00,28.00,VWS V14.01,2013-05-20 10:58:00,
2013-05-20 07:00:00,66.0,65.1,29.89,SSE,148,0.0,3.0,97,0.00,,---,0.00,26.00,VWS V14.01,2013-05-20 11:00:00,
2013-05-20 07:03:00,66.0,65.1,29.89,SSE,151,0.0,3.0,97,0.00,,---,0.00,26.00,VWS V14.01,2013-05-20 11:03:00,
2013-05-20 07:05:00,66.1,65.2,29.89,SSE,151,0.0,3.0,97,0.00,,---,0.00,28.00,VWS V14.01,2013-05-20 11:05:00,
2013-05-20 07:08:00,66.1,65.2,29.89,SSE,151,1.0,2.0,97,0.00,,---,0.00,26.00,VWS V14.01,2013-05-20 11:08:00,
2013-05-20 07:10:00,66.1,65.2,29.89,SSE,150,1.0,3.0,97,0.00,,---,0.00,32.00,VWS V14.01,2013-05-20 11:10:00,
2013-05-20 07:13:00,66.1,65.2,29.89,SSE,153,0.0,3.0,97,0.00,,---,0.00,35.00,VWS V14.01,2013-05-20 11:13:00,
2013-05-20 07:15:00,66.1,65.2,29.89,SSE,152,0.0,3.0,97,0.00,,---,0.00,35.00,VWS V14.01,2013-05-20 11:15:00,
2013-05-20 07:18:00,66.2,65.3,29.89,SSE,149,2.0,4.0,97,0.00,,---,0.00,40.00,VWS V14.01,2013-05-20 11:18:00,
2013-05-20 07:20:00,66.2,65.3,29.89,SSE,150,0.0,4.0,97,0.00,,---,0.00,42.00,VWS V14.01,2013-05-20 11:20:00,
2013-05-20 07:23:00,66.2,65.3,29.89,SSE,149,0.0,2.0,97,0.00,,---,0.00,47.00,VWS V14.01,2013-05-20 11:23:00,
2013-05-20 07:25:00,66.2,65.3,29.89,SSE,149,0.0,3.0,97,0.00,,---,0.00,54.00,VWS V14.01,2013-05-20 11:25:00,
2013-05-20 07:28:00,66.2,65.3,29.89,SSE,149,0.0,2.0,97,0.00,,---,0.00,63.00,VWS V14.01,2013-05-20 11:28:00,
2013-05-20 07:30:00,66.2,65.3,29.89,SSE,149,0.0,2.0,97,0.00,,---,0.00,63.00,VWS V14.01,2013-05-20 11:30:00,
2013-05-20 07:34:00,66.3,65.4,29.89,SE,146,1.0,5.0,97,0.00,,---,0.00,67.00,VWS V14.01,2013-05-20 11:34:00,
2013-05-20 07:35:00,66.3,65.4,29.89,SE,146,2.0,5.0,97,0.00,,---,0.00,83.00,VWS V14.01,2013-05-20 11:35:00,
2013-05-20 07:39:00,66.3,65.4,29.89,SE,146,1.0,2.0,97,0.00,,---,0.00,86.00,VWS V14.01,2013-05-20 11:39:00,
2013-05-20 07:40:00,66.3,65.4,29.89,SE,146,0.0,3.0,97,0.00,,---,0.00,77.00,VWS V14.01,2013-05-20 11:40:00,
2013-05-20 07:44:00,66.4,65.5,29.89,SE,146,1.0,2.0,97,0.00,,---,0.00,98.00,VWS V14.01,2013-05-20 11:44:00,
2013-05-20 07:45:00,66.4,65.5,29.89,SE,146,0.0,2.0,97,0.00,,---,0.00,118.00,VWS V14.01,2013-05-20 11:45:00,
2013-05-20 07:49:00,66.5,65.6,29.89,SE,146,1.0,3.0,97,0.00,,---,0.00,128.00,VWS V14.01,2013-05-20 11:49:00,
2013-05-20 07:50:00,66.5,65.6,29.89,SE,146,2.0,3.0,97,0.00,,---,0.00,127.00,VWS V14.01,2013-05-20 11:50:00,
2013-05-20 07:54:00,66.7,65.8,29.89,SE,146,2.0,3.0,97,0.00,,---,0.00,88.00,VWS V14.01,2013-05-20 11:54:00,
2013-05-20 07:55:00,66.7,65.8,29.89,SSE,148,2.0,3.0,97,0.00,,---,0.00,65.00,VWS V14.01,2013-05-20 11:55:00,
2013-05-20 07:59:00,66.7,65.8,29.89,SSE,165,0.0,4.0,97,0.00,,---,0.00,40.00,VWS V14.01,2013-05-20 11:59:00,
2013-05-20 08:00:00,66.8,65.9,29.89,South,178,2.0,6.0,97,0.00,,---,0.00,51.00,VWS V14.01,2013-05-20 12:00:00,
2013-05-20 08:04:00,66.8,65.9,29.90,South,191,3.0,6.0,97,0.00,,---,0.00,74.00,VWS V14.01,2013-05-20 12:04:00,
2013-05-20 08:05:00,66.8,65.9,29.90,SSW,194,4.0,6.0,97,0.00,,---,0.00,72.00,VWS V14.01,2013-05-20 12:05:00,
2013-05-20 08:09:00,66.8,65.9,29.90,SSW,192,2.0,4.0,97,0.00,,---,0.00,81.00,VWS V14.01,2013-05-20 12:09:00,
2013-05-20 08:10:00,66.8,65.9,29.90,SSW,192,0.0,4.0,97,0.00,,---,0.00,86.00,VWS V14.01,2013-05-20 12:10:00,
2013-05-20 08:14:00,66.8,65.9,29.90,South,171,1.0,9.0,97,0.00,,---,0.00,107.00,VWS V14.01,2013-05-20 12:14:00,
2013-05-20 08:15:00,66.8,65.9,29.90,South,184,3.0,9.0,97,0.00,,---,0.00,97.00,VWS V14.01,2013-05-20 12:15:00,
2013-05-20 08:19:00,66.9,66.0,29.90,South,173,3.0,5.0,97,0.00,,---,0.00,86.00,VWS V14.01,2013-05-20 12:19:00,
2013-05-20 08:20:00,66.9,66.0,29.90,South,173,2.0,5.0,97,0.00,,---,0.00,95.00,VWS V14.01,2013-05-20 12:20:00,
2013-05-20 08:24:00,66.9,66.0,29.90,South,173,1.0,4.0,97,0.00,,---,0.00,83.00,VWS V14.01,2013-05-20 12:24:00,
2013-05-20 08:25:00,66.9,66.0,29.90,South,173,2.0,4.0,97,0.00,,---,0.00,83.00,VWS V14.01,2013-05-20 12:25:00,
2013-05-20 08:29:00,67.0,66.1,29.90,SSW,198,0.0,6.0,97,0.00,,---,0.00,83.00,VWS V14.01,2013-05-20 12:29:00,
2013-05-20 08:30:00,67.0,66.1,29.90,SSW,197,0.0,6.0,97,0.00,,---,0.00,83.00,VWS V14.01,2013-05-20 12:30:00,
2013-05-20 08:34:00,67.0,66.1,29.90,SSW,196,0.0,4.0,97,0.00,,---,0.00,76.00,VWS V14.01,2013-05-20 12:34:00,
2013-05-20 08:35:00,67.0,66.1,29.90,SSW,196,0.0,4.0,97,0.00,,---,0.00,76.00,VWS V14.01,2013-05-20 12:35:00,
2013-05-20 08:39:00,67.1,66.2,29.90,SSW,194,3.0,5.0,97,0.00,,---,0.00,72.00,VWS V14.01,2013-05-20 12:39:00,
2013-05-20 08:40:00,67.1,66.2,29.90,SSW,194,0.0,5.0,97,0.00,,---,0.00,70.00,VWS V14.01,2013-05-20 12:40:00,
2013-05-20 08:44:00,67.1,66.2,29.90,South,189,2.0,6.0,97,0.00,,---,0.00,86.00,VWS V14.01,2013-05-20 12:44:00,
2013-05-20 08:45:00,67.1,66.2,29.90,South,189,1.0,6.0,97,0.00,,---,0.00,83.00,VWS V14.01,2013-05-20 12:45:00,
2013-05-20 08:49:00,67.2,66.3,29.90,South,189,0.0,3.0,97,0.00,,---,0.00,116.00,VWS V14.01,2013-05-20 12:49:00,
2013-05-20 08:50:00,67.2,66.3,29.90,South,175,2.0,4.0,97,0.00,,---,0.00,118.00,VWS V14.01,2013-05-20 12:50:00,
2013-05-20 08:54:00,67.2,66.3,29.90,South,175,1.0,3.0,97,0.00,,---,0.00,146.00,VWS V14.01,2013-05-20 12:54:00,
2013-05-20 08:55:00,67.2,66.3,29.90,South,184,3.0,4.0,97,0.00,,---,0.00,167.00,VWS V14.01,2013-05-20 12:55:00,
2013-05-20 08:59:00,67.4,66.5,29.90,SSE,166,1.0,5.0,97,0.00,,---,0.00,193.00,VWS V14.01,2013-05-20 12:59:00,
2013-05-20 09:00:00,67.4,66.8,29.90,SSE,165,0.0,5.0,98,0.00,,---,0.00,202.00,VWS V14.01,2013-05-20 13:00:00,
2013-05-20 09:04:00,67.5,66.6,29.90,SE,136,5.0,5.0,97,0.00,,---,0.00,237.00,VWS V14.01,2013-05-20 13:04:00,
2013-05-20 09:05:00,67.5,66.6,29.91,SSE,148,4.0,5.0,97,0.00,,---,0.00,253.00,VWS V14.01,2013-05-20 13:05:00,
2013-05-20 09:09:00,67.7,66.8,29.91,ESE,113,4.0,6.0,97,0.00,,---,0.00,278.00,VWS V14.01,2013-05-20 13:09:00,
2013-05-20 09:10:00,67.7,66.8,29.91,SE,138,2.0,6.0,97,0.00,,---,0.00,287.00,VWS V14.01,2013-05-20 13:10:00,
2013-05-20 09:14:00,68.0,67.4,29.91,SE,134,0.0,3.0,98,0.00,,---,0.00,193.00,VWS V14.01,2013-05-20 13:14:00,
2013-05-20 09:15:00,68.0,67.4,29.91,South,180,1.0,3.0,98,0.00,,---,0.00,156.00,VWS V14.01,2013-05-20 13:15:00,
2013-05-20 09:19:00,68.2,67.6,29.91,SSE,150,1.0,9.0,98,0.00,,---,0.00,237.00,VWS V14.01,2013-05-20 13:19:00,
2013-05-20 09:20:00,68.2,67.3,29.91,ESE,115,3.0,9.0,97,0.00,,---,0.00,227.00,VWS V14.01,2013-05-20 13:20:00,
2013-05-20 09:24:00,68.3,67.4,29.92,South,175,1.0,4.0,97,0.00,,---,0.00,183.00,VWS V14.01,2013-05-20 13:24:00,
2013-05-20 09:25:00,68.3,67.4,29.92,South,181,4.0,6.0,97,0.00,,---,0.00,183.00,VWS V14.01,2013-05-20 13:25:00,
2013-05-20 09:29:00,68.3,67.4,29.92,SSW,198,4.0,9.0,97,0.00,,---,0.00,185.00,VWS V14.01,2013-05-20 13:29:00,
2013-05-20 09:30:00,68.4,67.5,29.92,SSE,157,2.0,9.0,97,0.00,,---,0.00,192.00,VWS V14.01,2013-05-20 13:30:00,
2013-05-20 09:34:00,68.4,67.5,29.92,South,178,0.0,4.0,97,0.00,,---,0.00,204.00,VWS V14.01,2013-05-20 13:34:00,
2013-05-20 09:35:00,68.5,67.6,29.92,South,191,2.0,6.0,97,0.00,,---,0.00,214.00,VWS V14.01,2013-05-20 13:35:00,
2013-05-20 09:39:00,68.6,67.7,29.92,SE,132,2.0,6.0,97,0.00,,---,0.00,206.00,VWS V14.01,2013-05-20 13:39:00,
2013-05-20 09:40:00,68.6,67.7,29.92,SSE,165,1.0,6.0,97,0.00,,---,0.00,244.00,VWS V14.01,2013-05-20 13:40:00,
2013-05-20 09:44:00,68.7,67.8,29.92,South,173,2.0,4.0,97,0.00,,---,0.00,239.00,VWS V14.01,2013-05-20 13:44:00,
2013-05-20 09:45:00,68.7,67.8,29.92,South,173,0.0,4.0,97,0.00,,---,0.00,176.00,VWS V14.01,2013-05-20 13:45:00,
2013-05-20 09:49:00,68.8,67.9,29.92,South,173,1.0,4.0,97,0.00,,---,0.00,149.00,VWS V14.01,2013-05-20 13:49:00,
2013-05-20 09:50:00,68.8,67.9,29.92,South,173,2.0,4.0,97,0.00,,---,0.00,134.00,VWS V14.01,2013-05-20 13:50:00,
2013-05-20 09:54:00,68.9,68.0,29.92,SSW,196,2.0,6.0,97,0.00,,---,0.00,120.00,VWS V14.01,2013-05-20 13:54:00,
2013-05-20 09:55:00,68.9,68.0,29.92,SSW,204,4.0,6.0,97,0.00,,---,0.00,123.00,VWS V14.01,2013-05-20 13:55:00,
2013-05-20 09:59:00,69.0,68.1,29.92,ENE,75,0.0,5.0,97,0.00,,---,0.00,243.00,VWS V14.01,2013-05-20 13:59:00,
2013-05-20 10:00:00,69.0,68.1,29.92,ENE,75,0.0,5.0,97,0.00,,---,0.00,229.00,VWS V14.01,2013-05-20 14:00:00,
2013-05-20 10:04:00,69.2,68.3,29.92,South,179,1.0,4.0,97,0.00,,---,0.00,214.00,VWS V14.01,2013-05-20 14:04:00,
2013-05-20 10:05:00,69.2,68.3,29.92,South,178,2.0,4.0,97,0.00,,---,0.00,211.00,VWS V14.01,2013-05-20 14:05:00,
2013-05-20 10:09:00,69.4,68.5,29.92,SSW,198,1.0,6.0,97,0.00,,---,0.00,174.00,VWS V14.01,2013-05-20 14:09:00,
2013-05-20 10:10:00,69.4,68.5,29.92,SSW,198,0.0,6.0,97,0.00,,---,0.00,204.00,VWS V14.01,2013-05-20 14:10:00,
2013-05-20 10:14:00,69.5,68.3,29.92,South,184,1.0,4.0,96,0.00,,---,0.00,295.00,VWS V14.01,2013-05-20 14:14:00,
2013-05-20 10:15:00,69.5,68.3,29.92,South,184,2.0,4.0,96,0.00,,---,0.00,304.00,VWS V14.01,2013-05-20 14:15:00,
2013-05-20 10:19:00,69.6,68.4,29.92,SSE,147,1.0,5.0,96,0.00,,---,0.00,271.00,VWS V14.01,2013-05-20 14:19:00,
2013-05-20 10:20:00,69.7,68.5,29.92,SSE,147,0.0,5.0,96,0.00,,---,0.00,283.00,VWS V14.01,2013-05-20 14:20:00,
2013-05-20 10:24:00,69.8,68.6,29.92,WSW,238,6.0,6.0,96,0.00,,---,0.00,294.00,VWS V14.01,2013-05-20 14:24:00,
2013-05-20 10:25:00,69.8,68.6,29.92,WSW,239,1.0,6.0,96,0.00,,---,0.00,325.00,VWS V14.01,2013-05-20 14:25:00,
2013-05-20 10:29:00,70.0,68.8,29.92,South,174,5.0,5.0,96,0.00,,---,0.00,221.00,VWS V14.01,2013-05-20 14:29:00,
2013-05-20 10:30:00,70.0,68.8,29.92,South,173,0.0,5.0,96,0.00,,---,0.00,221.00,VWS V14.01,2013-05-20 14:30:00,
2013-05-20 10:34:00,70.1,68.9,29.92,WSW,238,5.0,9.0,96,0.00,,---,0.00,135.00,VWS V14.01,2013-05-20 14:34:00,
2013-05-20 10:35:00,70.1,68.6,29.92,SW,222,2.0,9.0,95,0.00,,---,0.00,116.00,VWS V14.01,2013-05-20 14:35:00,
2013-05-20 10:39:00,70.1,68.6,29.93,SW,235,0.0,5.0,95,0.00,,---,0.00,128.00,VWS V14.01,2013-05-20 14:39:00,
2013-05-20 10:40:00,70.1,68.6,29.93,SW,234,0.0,5.0,95,0.00,,---,0.00,153.00,VWS V14.01,2013-05-20 14:40:00,
2013-05-20 10:44:00,70.1,68.6,29.92,South,184,6.0,6.0,95,0.00,,---,0.00,243.00,VWS V14.01,2013-05-20 14:44:00,
2013-05-20 10:45:00,70.1,68.6,29.92,SSE,159,4.0,6.0,95,0.00,,---,0.00,211.00,VWS V14.01,2013-05-20 14:45:00,
2013-05-20 10:49:00,70.2,68.7,29.92,South,177,0.0,6.0,95,0.00,,---,0.00,186.00,VWS V14.01,2013-05-20 14:49:00,
2013-05-20 10:50:00,70.2,68.7,29.92,South,177,3.0,6.0,95,0.00,,---,0.00,236.00,VWS V14.01,2013-05-20 14:50:00,
2013-05-20 10:54:00,70.4,68.9,29.92,SSE,155,0.0,4.0,95,0.00,,---,0.00,366.00,VWS V14.01,2013-05-20 14:54:00,
2013-05-20 10:55:00,70.4,68.9,29.92,South,186,3.0,4.0,95,0.00,,---,0.00,313.00,VWS V14.01,2013-05-20 14:55:00,
2013-05-20 10:59:00,70.6,69.1,29.92,SSW,203,1.0,5.0,95,0.00,,---,0.00,343.00,VWS V14.01,2013-05-20 14:59:00,
2013-05-20 11:00:00,70.6,69.1,29.92,SSW,203,1.0,5.0,95,0.00,,---,0.00,343.00,VWS V14.01,2013-05-20 15:00:00,
2013-05-20 11:04:00,70.9,69.4,29.92,SSW,194,3.0,6.0,95,0.00,,---,0.00,255.00,VWS V14.01,2013-05-20 15:04:00,
2013-05-20 11:05:00,70.9,69.4,29.92,South,171,2.0,6.0,95,0.00,,---,0.00,290.00,VWS V14.01,2013-05-20 15:05:00,
2013-05-20 11:09:00,71.1,69.3,29.92,South,173,1.0,6.0,94,0.00,,---,0.00,506.00,VWS V14.01,2013-05-20 15:09:00,
2013-05-20 11:10:00,71.2,69.4,29.92,South,181,3.0,6.0,94,0.00,,---,0.00,673.00,VWS V14.01,2013-05-20 15:10:00,
2013-05-20 11:14:00,71.8,70.3,29.92,SSE,163,6.0,7.0,95,0.00,,---,0.00,784.00,VWS V14.01,2013-05-20 15:14:00,
2013-05-20 11:15:00,71.9,70.4,29.92,South,179,3.0,7.0,95,0.00,,---,0.00,615.00,VWS V14.01,2013-05-20 15:15:00,
2013-05-20 11:19:00,72.4,70.6,29.92,SSW,208,2.0,7.0,94,0.00,,---,0.00,285.00,VWS V14.01,2013-05-20 15:19:00,
2013-05-20 11:20:00,72.5,70.7,29.92,WSW,247,4.0,7.0,94,0.00,,---,0.00,246.00,VWS V14.01,2013-05-20 15:20:00,
2013-05-20 11:25:00,72.5,70.1,29.92,SW,225,4.0,9.0,92,0.00,,---,0.00,185.00,VWS V14.01,2013-05-20 15:25:00,
2013-05-20 11:30:00,72.5,69.7,29.92,SSW,206,3.0,10.0,91,0.00,,---,0.00,220.00,VWS V14.01,2013-05-20 15:30:00,
2013-05-20 11:35:00,72.5,69.7,29.92,SSW,209,1.0,7.0,91,0.00,,---,0.00,264.00,VWS V14.01,2013-05-20 15:35:00,
2013-05-20 11:40:00,72.6,69.8,29.92,SW,228,5.0,5.0,91,0.00,,---,0.00,244.00,VWS V14.01,2013-05-20 15:40:00,
2013-05-20 11:45:00,72.6,69.5,29.92,SE,146,2.0,6.0,90,0.00,,---,0.00,221.00,VWS V14.01,2013-05-20 15:45:00,
2013-05-20 11:50:00,72.7,69.9,29.92,SSE,162,3.0,3.0,91,0.00,,---,0.00,432.00,VWS V14.01,2013-05-20 15:50:00,
2013-05-20 11:55:00,72.9,70.1,29.92,SSW,209,2.0,5.0,91,0.00,,---,0.00,193.00,VWS V14.01,2013-05-20 15:55:00,
2013-05-20 12:00:00,73.1,70.0,29.92,SSW,202,6.0,7.0,90,0.00,,---,0.00,193.00,VWS V14.01,2013-05-20 16:00:00,
2013-05-20 12:05:00,73.1,70.0,29.92,SSW,202,3.0,5.0,90,0.00,,---,0.00,265.00,VWS V14.01,2013-05-20 16:05:00,
2013-05-20 12:10:00,73.2,69.8,29.92,SW,224,8.0,10.0,89,0.00,,---,0.00,239.00,VWS V14.01,2013-05-20 16:10:00,
2013-05-20 12:15:00,73.1,69.7,29.92,SSW,205,4.0,9.0,89,0.00,,---,0.00,169.00,VWS V14.01,2013-05-20 16:15:00,
2013-05-20 12:20:00,72.9,69.5,29.92,SSW,197,1.0,7.0,89,0.00,,---,0.00,262.00,VWS V14.01,2013-05-20 16:20:00,
2013-05-20 12:25:00,72.9,69.5,29.92,WSW,239,7.0,7.0,89,0.00,,---,0.00,132.00,VWS V14.01,2013-05-20 16:25:00,
2013-05-20 12:30:00,72.7,69.3,29.92,SW,227,2.0,7.0,89,0.00,,---,0.00,127.00,VWS V14.01,2013-05-20 16:30:00,
2013-05-20 12:35:00,72.5,69.1,29.93,SSW,209,4.0,10.0,89,0.00,,---,0.00,123.00,VWS V14.01,2013-05-20 16:35:00,
2013-05-20 12:40:00,72.3,68.9,29.92,South,175,1.0,7.0,89,0.00,,---,0.00,176.00,VWS V14.01,2013-05-20 16:40:00,
2013-05-20 12:45:00,72.2,69.1,29.91,SSW,196,0.0,6.0,90,0.00,,---,0.00,292.00,VWS V14.01,2013-05-20 16:45:00,
2013-05-20 12:50:00,72.4,69.3,29.91,South,180,0.0,7.0,90,0.00,,---,0.00,466.00,VWS V14.01,2013-05-20 16:50:00,
2013-05-20 12:55:00,72.7,69.9,29.91,South,180,3.0,6.0,91,0.00,,---,0.00,768.00,VWS V14.01,2013-05-20 16:55:00,
2013-05-20 13:00:00,73.1,70.0,29.91,South,182,2.0,5.0,90,0.00,,---,0.00,749.00,VWS V14.01,2013-05-20 17:00:00,
2013-05-20 13:05:00,73.5,70.1,29.91,SSW,202,0.0,5.0,89,0.00,,---,0.00,524.00,VWS V14.01,2013-05-20 17:05:00,
2013-05-20 13:10:00,73.9,70.1,29.91,SSW,202,1.0,2.0,88,0.00,,---,0.00,508.00,VWS V14.01,2013-05-20 17:10:00,
2013-05-20 13:15:00,74.7,71.2,29.90,South,184,1.0,3.0,89,0.00,,---,0.00,1007.00,VWS V14.01,2013-05-20 17:15:00,
2013-05-20 13:20:00,75.7,71.9,29.90,SW,214,1.0,5.0,88,0.00,,---,0.00,737.00,VWS V14.01,2013-05-20 17:20:00,
2013-05-20 13:25:00,76.4,71.9,29.89,SE,126,3.0,4.0,86,0.00,,---,0.00,1151.00,VWS V14.01,2013-05-20 17:25:00,
2013-05-20 13:30:00,77.1,71.9,29.90,South,170,3.0,3.0,84,0.00,,---,0.00,624.00,VWS V14.01,2013-05-20 17:30:00,
2013-05-20 13:35:00,77.7,72.5,29.89,South,171,1.0,4.0,84,0.00,,---,0.00,898.00,VWS V14.01,2013-05-20 17:35:00,
2013-05-20 13:40:00,78.2,72.6,29.89,South,186,0.0,6.0,83,0.00,,---,0.00,1100.00,VWS V14.01,2013-05-20 17:40:00,
2013-05-20 13:45:00,79.1,73.5,29.88,SW,230,2.0,2.0,83,0.00,,---,0.00,1197.00,VWS V14.01,2013-05-20 17:45:00,
2013-05-20 13:50:00,79.7,73.0,29.88,ESE,107,6.0,6.0,80,0.00,,---,0.00,1227.00,VWS V14.01,2013-05-20 17:50:00,
2013-05-20 13:55:00,79.8,72.7,29.88,SSW,209,5.0,5.0,79,0.00,,---,0.00,499.00,VWS V14.01,2013-05-20 17:55:00,
2013-05-20 14:00:00,80.0,73.3,29.88,SE,143,2.0,12.0,80,0.00,,---,0.00,1151.00,VWS V14.01,2013-05-20 18:00:00,
2013-05-20 14:05:00,80.2,73.1,29.88,ESE,115,3.0,3.0,79,0.00,,---,0.00,1141.00,VWS V14.01,2013-05-20 18:05:00,
2013-05-20 14:10:00,80.5,73.0,29.87,SSE,152,3.0,6.0,78,0.00,,---,0.00,1132.00,VWS V14.01,2013-05-20 18:10:00,
2013-05-20 14:15:00,80.7,73.2,29.88,South,184,1.0,2.0,78,0.00,,---,0.00,1095.00,VWS V14.01,2013-05-20 18:15:00,
2013-05-20 14:20:00,81.1,73.2,29.87,WSW,240,4.0,4.0,77,0.00,,---,0.00,1014.00,VWS V14.01,2013-05-20 18:20:00,
2013-05-20 14:25:00,81.1,72.8,29.87,South,180,2.0,2.0,76,0.00,,---,0.00,986.00,VWS V14.01,2013-05-20 18:25:00,
2013-05-20 14:30:00,80.8,72.1,29.87,East,90,3.0,5.0,75,0.00,,---,0.00,366.00,VWS V14.01,2013-05-20 18:30:00,
2013-05-20 14:35:00,80.6,72.7,29.87,SSE,168,1.0,2.0,77,0.00,,---,0.00,895.00,VWS V14.01,2013-05-20 18:35:00,
2013-05-20 14:40:00,80.5,72.2,29.86,SSE,159,0.0,3.0,76,0.00,,---,0.00,501.00,VWS V14.01,2013-05-20 18:40:00,
2013-05-20 14:45:00,80.6,72.7,29.87,SE,128,0.0,0.0,77,0.00,,---,0.00,907.00,VWS V14.01,2013-05-20 18:45:00,
2013-05-20 14:50:00,80.7,72.0,29.87,SSE,151,1.0,2.0,75,0.00,,---,0.00,387.00,VWS V14.01,2013-05-20 18:50:00,
2013-05-20 14:55:00,80.8,72.9,29.87,ESE,103,5.0,5.0,77,0.00,,---,0.00,976.00,VWS V14.01,2013-05-20 18:55:00,
2013-05-20 15:00:00,80.9,72.2,29.87,ESE,120,0.0,1.0,75,0.00,,---,0.00,976.00,VWS V14.01,2013-05-20 19:00:00,
2013-05-20 15:05:00,80.8,72.5,29.87,South,181,1.0,3.0,76,0.00,,---,0.00,1063.00,VWS V14.01,2013-05-20 19:05:00,
2013-05-20 15:10:00,81.1,72.8,29.87,SW,219,2.0,3.0,76,0.00,,---,0.00,657.00,VWS V14.01,2013-05-20 19:10:00,
2013-05-20 15:15:00,81.1,72.0,29.88,South,173,1.0,4.0,74,0.00,,---,0.00,285.00,VWS V14.01,2013-05-20 19:15:00,
2013-05-20 15:20:00,80.9,71.8,29.87,South,179,2.0,3.0,74,0.00,,---,0.00,350.00,VWS V14.01,2013-05-20 19:20:00,
2013-05-20 15:25:00,80.8,72.1,29.86,South,188,1.0,3.0,75,0.00,,---,0.00,647.00,VWS V14.01,2013-05-20 19:25:00,
2013-05-20 15:30:00,80.9,72.6,29.86,South,181,1.0,3.0,76,0.00,,---,0.00,896.00,VWS V14.01,2013-05-20 19:30:00,
2013-05-20 15:35:00,81.3,73.0,29.86,SSW,202,3.0,7.0,76,0.00,,---,0.00,895.00,VWS V14.01,2013-05-20 19:35:00,
2013-05-20 15:36:00,81.3,73.0,29.86,SSW,199,0.0,3.0,76,0.00,,---,0.00,905.00,VWS V14.01,2013-05-20 19:36:00,
2013-05-20 15:40:00,81.8,72.7,29.86,SW,221,3.0,6.0,74,0.00,,---,0.00,888.00,VWS V14.01,2013-05-20 19:40:00,
2013-05-20 15:41:00,81.8,72.7,29.86,South,188,7.0,7.0,74,0.00,,---,0.00,882.00,VWS V14.01,2013-05-20 19:41:00,
2013-05-20 15:45:00,82.1,72.6,29.86,SW,223,3.0,10.0,73,0.00,,---,0.00,886.00,VWS V14.01,2013-05-20 19:45:00,
2013-05-20 15:46:00,82.1,72.2,29.86,SSW,206,7.0,7.0,72,0.00,,---,0.00,875.00,VWS V14.01,2013-05-20 19:46:00,
2013-05-20 15:50:00,82.4,73.7,29.85,South,180,2.0,7.0,75,0.00,,---,0.00,823.00,VWS V14.01,2013-05-20 19:50:00,
2013-05-20 15:51:00,82.4,73.3,29.85,South,180,1.0,2.0,74,0.00,,---,0.00,823.00,VWS V14.01,2013-05-20 19:51:00,
2013-05-20 15:55:00,82.7,73.2,29.85,South,177,5.0,5.0,73,0.00,,---,0.00,299.00,VWS V14.01,2013-05-20 19:55:00,
2013-05-20 15:56:00,82.7,73.6,29.85,South,190,11.0,12.0,74,0.00,,---,0.00,299.00,VWS V14.01,2013-05-20 19:56:00,
2013-05-20 16:00:00,82.8,73.3,29.84,South,188,2.0,12.0,73,0.00,,---,0.00,879.00,VWS V14.01,2013-05-20 20:00:00,
2013-05-20 16:01:00,82.7,73.6,29.84,South,188,0.0,3.0,74,0.00,,---,0.00,879.00,VWS V14.01,2013-05-20 20:01:00,
2013-05-20 16:05:00,82.6,73.1,29.84,SE,143,2.0,7.0,73,0.00,,---,0.00,819.00,VWS V14.01,2013-05-20 20:05:00,
2013-05-20 16:06:00,82.6,73.1,29.83,SE,130,9.0,9.0,73,0.00,,---,0.00,817.00,VWS V14.01,2013-05-20 20:06:00,
2013-05-20 16:10:00,82.5,72.6,29.83,SSE,159,6.0,11.0,72,0.00,,---,0.00,809.00,VWS V14.01,2013-05-20 20:10:00,
2013-05-20 16:11:00,82.5,72.6,29.83,SE,137,3.0,7.0,72,0.00,,---,0.00,782.00,VWS V14.01,2013-05-20 20:11:00,
2013-05-20 16:15:00,82.5,73.0,29.83,SSE,152,4.0,11.0,73,0.00,,---,0.00,791.00,VWS V14.01,2013-05-20 20:15:00,
2013-05-20 16:16:00,82.5,73.0,29.83,South,183,4.0,4.0,73,0.00,,---,0.00,773.00,VWS V14.01,2013-05-20 20:16:00,
2013-05-20 16:20:00,82.6,73.1,29.84,SE,125,3.0,6.0,73,0.00,,---,0.00,765.00,VWS V14.01,2013-05-20 20:20:00,
2013-05-20 16:21:00,82.6,73.5,29.84,SE,138,8.0,8.0,74,0.00,,---,0.00,761.00,VWS V14.01,2013-05-20 20:21:00,
2013-05-20 16:25:00,82.6,72.7,29.84,South,177,6.0,9.0,72,0.00,,---,0.00,745.00,VWS V14.01,2013-05-20 20:25:00,
2013-05-20 16:26:00,82.6,73.1,29.84,ESE,118,3.0,8.0,73,0.00,,---,0.00,761.00,VWS V14.01,2013-05-20 20:26:00,
2013-05-20 16:30:00,82.7,73.2,29.83,South,186,0.0,11.0,73,0.00,,---,0.00,715.00,VWS V14.01,2013-05-20 20:30:00,
2013-05-20 16:31:00,82.7,73.2,29.83,South,185,6.0,6.0,73,0.00,,---,0.00,715.00,VWS V14.01,2013-05-20 20:31:00,
2013-05-20 16:35:00,82.7,72.3,29.83,South,175,3.0,12.0,71,0.00,,---,0.00,696.00,VWS V14.01,2013-05-20 20:35:00,
2013-05-20 16:36:00,82.8,72.4,29.83,ESE,123,2.0,6.0,71,0.00,,---,0.00,696.00,VWS V14.01,2013-05-20 20:36:00,
2013-05-20 16:40:00,82.9,72.9,29.83,South,184,1.0,9.0,72,0.00,,---,0.00,691.00,VWS V14.01,2013-05-20 20:40:00,
2013-05-20 16:41:00,82.9,72.9,29.83,SE,140,4.0,7.0,72,0.00,,---,0.00,684.00,VWS V14.01,2013-05-20 20:41:00,
2013-05-20 16:45:00,83.0,72.2,29.83,South,187,2.0,9.0,70,0.00,,---,0.00,663.00,VWS V14.01,2013-05-20 20:45:00,
2013-05-20 16:46:00,83.0,72.6,29.83,South,176,4.0,10.0,71,0.00,,---,0.00,659.00,VWS V14.01,2013-05-20 20:46:00,
2013-05-20 16:50:00,83.0,71.8,29.82,ENE,73,4.0,10.0,69,0.00,,---,0.00,613.00,VWS V14.01,2013-05-20 20:50:00,
2013-05-20 16:51:00,83.0,71.8,29.82,South,187,9.0,11.0,69,0.00,,---,0.00,666.00,VWS V14.01,2013-05-20 20:51:00,
2013-05-20 16:55:00,83.0,72.2,29.82,SE,124,0.0,12.0,70,0.00,,---,0.00,656.00,VWS V14.01,2013-05-20 20:55:00,
2013-05-20 16:56:00,83.0,72.2,29.82,ESE,120,5.0,5.0,70,0.00,,---,0.00,652.00,VWS V14.01,2013-05-20 20:56:00,
2013-05-20 17:00:00,83.1,72.7,29.82,SSE,161,3.0,10.0,71,0.00,,---,0.00,638.00,VWS V14.01,2013-05-20 21:00:00,
2013-05-20 17:01:00,83.1,72.3,29.82,SW,217,1.0,3.0,70,0.00,,---,0.00,636.00,VWS V14.01,2013-05-20 21:01:00,
2013-05-20 17:05:00,83.1,72.3,29.82,ENE,78,2.0,10.0,70,0.00,,---,0.00,628.00,VWS V14.01,2013-05-20 21:05:00,
2013-05-20 17:06:00,83.1,72.7,29.82,South,171,4.0,4.0,71,0.00,,---,0.00,617.00,VWS V14.01,2013-05-20 21:06:00,
2013-05-20 17:10:00,83.1,72.7,29.82,South,189,9.0,9.0,71,0.00,,---,0.00,617.00,VWS V14.01,2013-05-20 21:10:00,
2013-05-20 17:11:00,83.1,73.1,29.82,South,190,0.0,9.0,72,0.00,,---,0.00,608.00,VWS V14.01,2013-05-20 21:11:00,
2013-05-20 17:15:00,83.3,72.9,29.81,SE,144,6.0,9.0,71,0.00,,---,0.00,606.00,VWS V14.01,2013-05-20 21:15:00,
2013-05-20 17:16:00,83.3,72.5,29.82,SE,138,4.0,6.0,70,0.00,,---,0.00,591.00,VWS V14.01,2013-05-20 21:16:00,
2013-05-20 17:20:00,83.4,73.0,29.82,South,188,9.0,11.0,71,0.00,,---,0.00,587.00,VWS V14.01,2013-05-20 21:20:00,
2013-05-20 17:21:00,83.4,72.6,29.82,South,178,4.0,10.0,70,0.00,,---,0.00,582.00,VWS V14.01,2013-05-20 21:21:00,
2013-05-20 17:25:00,83.4,73.4,29.82,SSW,208,4.0,10.0,72,0.00,,---,0.00,554.00,VWS V14.01,2013-05-20 21:25:00,
2013-05-20 17:26:00,83.4,73.0,29.82,SSW,205,3.0,9.0,71,0.00,,---,0.00,555.00,VWS V14.01,2013-05-20 21:26:00,
2013-05-20 17:30:00,83.5,73.1,29.82,South,189,5.0,11.0,71,0.00,,---,0.00,557.00,VWS V14.01,2013-05-20 21:30:00,
2013-05-20 17:31:00,83.5,73.1,29.81,SSW,205,7.0,8.0,71,0.00,,---,0.00,575.00,VWS V14.01,2013-05-20 21:31:00,
2013-05-20 17:35:00,83.5,73.1,29.81,South,184,1.0,10.0,71,0.00,,---,0.00,550.00,VWS V14.01,2013-05-20 21:35:00,
2013-05-20 17:36:00,83.5,73.5,29.81,South,191,11.0,11.0,72,0.00,,---,0.00,520.00,VWS V14.01,2013-05-20 21:36:00,
2013-05-20 17:40:00,83.5,73.1,29.81,SSE,156,1.0,11.0,71,0.00,,---,0.00,573.00,VWS V14.01,2013-05-20 21:40:00,
2013-05-20 17:41:00,83.5,73.1,29.81,SSE,151,7.0,10.0,71,0.00,,---,0.00,573.00,VWS V14.01,2013-05-20 21:41:00,
2013-05-20 17:45:00,83.4,73.0,29.81,SSW,202,3.0,12.0,71,0.00,,---,0.00,524.00,VWS V14.01,2013-05-20 21:45:00,
2013-05-20 17:46:00,83.4,73.0,29.81,SSE,161,2.0,7.0,71,0.00,,---,0.00,540.00,VWS V14.01,2013-05-20 21:46:00,
2013-05-20 17:50:00,83.3,72.9,29.81,SSW,203,4.0,9.0,71,0.00,,---,0.00,513.00,VWS V14.01,2013-05-20 21:50:00,
2013-05-20 17:51:00,83.3,72.9,29.81,South,169,1.0,6.0,71,0.00,,---,0.00,471.00,VWS V14.01,2013-05-20 21:51:00,
2013-05-20 17:55:00,83.3,72.9,29.81,South,180,5.0,10.0,71,0.00,,---,0.00,330.00,VWS V14.01,2013-05-20 21:55:00,
2013-05-20 17:56:00,83.3,72.9,29.81,SE,130,6.0,7.0,71,0.00,,---,0.00,434.00,VWS V14.01,2013-05-20 21:56:00,
2013-05-20 18:00:00,83.2,72.8,29.81,SSW,205,5.0,16.0,71,0.00,,---,0.00,443.00,VWS V14.01,2013-05-20 22:00:00,
2013-05-20 18:01:00,83.1,72.7,29.80,South,176,3.0,5.0,71,0.00,,---,0.00,401.00,VWS V14.01,2013-05-20 22:01:00,
2013-05-20 18:05:00,83.0,73.1,29.80,South,182,1.0,12.0,72,0.00,,---,0.00,439.00,VWS V14.01,2013-05-20 22:05:00,
2013-05-20 18:06:00,83.0,72.6,29.80,South,182,4.0,6.0,71,0.00,,---,0.00,436.00,VWS V14.01,2013-05-20 22:06:00,
2013-05-20 18:10:00,83.0,73.1,29.80,SSW,202,3.0,9.0,72,0.00,,---,0.00,424.00,VWS V14.01,2013-05-20 22:10:00,
2013-05-20 18:11:00,83.0,73.5,29.80,SSW,195,0.0,3.0,73,0.00,,---,0.00,420.00,VWS V14.01,2013-05-20 22:11:00,
2013-05-20 18:15:00,83.1,73.6,29.80,SW,219,2.0,12.0,73,0.00,,---,0.00,394.00,VWS V14.01,2013-05-20 22:15:00,
2013-05-20 18:16:00,83.1,73.1,29.80,SSW,199,12.0,13.0,72,0.00,,---,0.00,390.00,VWS V14.01,2013-05-20 22:16:00,
2013-05-20 18:20:00,83.2,73.2,29.80,South,190,4.0,13.0,72,0.00,,---,0.00,373.00,VWS V14.01,2013-05-20 22:20:00,
2013-05-20 18:22:00,83.2,73.2,29.80,South,184,3.0,6.0,72,0.00,,---,0.00,371.00,VWS V14.01,2013-05-20 22:22:00,
2013-05-20 18:25:00,83.3,72.9,29.80,SSE,166,10.0,10.0,71,0.00,,---,0.00,373.00,VWS V14.01,2013-05-20 22:25:00,
2013-05-20 18:27:00,83.2,72.4,29.80,SSW,211,11.0,15.0,70,0.00,,---,0.00,373.00,VWS V14.01,2013-05-20 22:27:00,
2013-05-20 18:30:00,83.2,73.2,29.80,South,184,0.0,15.0,72,0.00,,---,0.00,360.00,VWS V14.01,2013-05-20 22:30:00,
2013-05-20 18:32:00,83.2,73.2,29.80,SSE,165,4.0,11.0,72,0.00,,---,0.00,283.00,VWS V14.01,2013-05-20 22:32:00,
2013-05-20 18:35:00,83.0,72.6,29.80,SE,132,9.0,11.0,71,0.00,,---,0.00,332.00,VWS V14.01,2013-05-20 22:35:00,
2013-05-20 18:37:00,82.9,72.5,29.80,SSE,167,7.0,9.0,71,0.00,,---,0.00,332.00,VWS V14.01,2013-05-20 22:37:00,
2013-05-20 18:40:00,82.8,72.9,29.80,South,184,3.0,9.0,72,0.00,,---,0.00,329.00,VWS V14.01,2013-05-20 22:40:00,
2013-05-20 18:42:00,82.7,72.8,29.80,SSW,192,5.0,5.0,72,0.00,,---,0.00,288.00,VWS V14.01,2013-05-20 22:42:00,
2013-05-20 18:45:00,82.6,73.1,29.80,SSE,147,1.0,10.0,73,0.00,,---,0.00,302.00,VWS V14.01,2013-05-20 22:45:00,
2013-05-20 18:47:00,82.5,73.0,29.80,SSW,193,4.0,5.0,73,0.00,,---,0.00,308.00,VWS V14.01,2013-05-20 22:47:00,
2013-05-20 18:50:00,82.4,72.9,29.80,SW,215,4.0,9.0,73,0.00,,---,0.00,271.00,VWS V14.01,2013-05-20 22:50:00,
2013-05-20 18:52:00,82.3,73.2,29.80,South,169,3.0,5.0,74,0.00,,---,0.00,281.00,VWS V14.01,2013-05-20 22:52:00,
2013-05-20 18:55:00,82.2,73.1,29.80,SSE,157,4.0,10.0,74,0.00,,---,0.00,123.00,VWS V14.01,2013-05-20 22:55:00,
2013-05-20 18:57:00,82.1,73.0,29.79,SSE,149,7.0,9.0,74,0.00,,---,0.00,248.00,VWS V14.01,2013-05-20 22:57:00,
2013-05-20 19:00:00,81.9,72.8,29.79,South,174,2.0,9.0,74,0.00,,---,0.00,91.00,VWS V14.01,2013-05-20 23:00:00,
2013-05-20 19:02:00,81.8,72.7,29.80,SSE,158,1.0,4.0,74,0.00,,---,0.00,155.00,VWS V14.01,2013-05-20 23:02:00,
2013-05-20 19:05:00,81.7,72.6,29.80,SSW,195,5.0,6.0,74,0.00,,---,0.00,90.00,VWS V14.01,2013-05-20 23:05:00,
2013-05-20 19:07:00,81.6,72.9,29.80,SE,131,6.0,6.0,75,0.00,,---,0.00,90.00,VWS V14.01,2013-05-20 23:07:00,
2013-05-20 19:10:00,81.3,72.6,29.80,South,175,3.0,6.0,75,0.00,,---,0.00,104.00,VWS V14.01,2013-05-20 23:10:00,
2013-05-20 19:12:00,81.2,72.5,29.80,SSE,157,0.0,5.0,75,0.00,,---,0.00,93.00,VWS V14.01,2013-05-20 23:12:00,
2013-05-20 19:15:00,81.1,72.8,29.80,South,169,1.0,5.0,76,0.00,,---,0.00,76.00,VWS V14.01,2013-05-20 23:15:00,
2013-05-20 19:17:00,81.0,72.7,29.80,South,182,2.0,4.0,76,0.00,,---,0.00,70.00,VWS V14.01,2013-05-20 23:17:00,
2013-05-20 19:20:00,80.8,72.5,29.80,South,184,0.0,4.0,76,0.00,,---,0.00,74.00,VWS V14.01,2013-05-20 23:20:00,
2013-05-20 19:22:00,80.7,72.8,29.80,South,184,2.0,3.0,77,0.00,,---,0.00,90.00,VWS V14.01,2013-05-20 23:22:00,
2013-05-20 19:25:00,80.6,72.7,29.80,SE,131,0.0,4.0,77,0.00,,---,0.00,163.00,VWS V14.01,2013-05-20 23:25:00,
2013-05-20 19:27:00,80.5,72.6,29.80,South,187,2.0,6.0,77,0.00,,---,0.00,172.00,VWS V14.01,2013-05-20 23:27:00,
2013-05-20 19:30:00,80.4,72.5,29.81,South,187,0.0,6.0,77,0.00,,---,0.00,81.00,VWS V14.01,2013-05-20 23:30:00,
2013-05-20 19:32:00,80.4,72.5,29.81,SSW,202,1.0,4.0,77,0.00,,---,0.00,67.00,VWS V14.01,2013-05-20 23:32:00,
2013-05-20 19:35:00,80.3,72.8,29.81,SSE,151,2.0,7.0,78,0.00,,---,0.00,104.00,VWS V14.01,2013-05-20 23:35:00,
2013-05-20 19:37:00,80.2,72.7,29.82,South,178,3.0,5.0,78,0.00,,---,0.00,116.00,VWS V14.01,2013-05-20 23:37:00,
2013-05-20 19:40:00,80.2,72.7,29.81,South,171,1.0,5.0,78,0.00,,---,0.00,100.00,VWS V14.01,2013-05-20 23:40:00,
2013-05-20 19:42:00,80.1,72.6,29.81,SSE,168,3.0,8.0,78,0.00,,---,0.00,62.00,VWS V14.01,2013-05-20 23:42:00,
2013-05-20 19:45:00,80.0,72.5,29.81,South,175,2.0,10.0,78,0.00,,---,0.00,60.00,VWS V14.01,2013-05-20 23:45:00,
2013-05-20 19:47:00,79.9,72.4,29.81,South,175,0.0,2.0,78,0.00,,---,0.00,54.00,VWS V14.01,2013-05-20 23:47:00,
2013-05-20 19:50:00,79.8,72.3,29.81,SSE,162,3.0,6.0,78,0.00,,---,0.00,42.00,VWS V14.01,2013-05-20 23:50:00,
2013-05-20 19:52:00,79.7,72.2,29.81,South,179,3.0,5.0,78,0.00,,---,0.00,44.00,VWS V14.01,2013-05-20 23:52:00,
2013-05-20 19:55:00,79.6,72.1,29.82,South,175,0.0,5.0,78,0.00,,---,0.00,47.00,VWS V14.01,2013-05-20 23:55:00,
2013-05-20 19:57:00,79.5,72.4,29.82,South,175,0.0,1.0,79,0.00,,---,0.00,44.00,VWS V14.01,2013-05-20 23:57:00,
2013-05-20 20:00:00,79.4,72.3,29.82,South,176,0.0,4.0,79,0.00,,---,0.00,39.00,VWS V14.01,2013-05-21 00:00:00,
2013-05-20 20:02:00,79.3,72.2,29.82,South,173,3.0,5.0,79,0.00,,---,0.00,35.00,VWS V14.01,2013-05-21 00:02:00,
2013-05-20 20:05:00,79.2,72.1,29.82,South,174,2.0,5.0,79,0.00,,---,0.00,32.00,VWS V14.01,2013-05-21 00:05:00,
2013-05-20 20:07:00,79.1,72.0,29.82,South,175,0.0,3.0,79,0.00,,---,0.00,28.00,VWS V14.01,2013-05-21 00:07:00,
2013-05-20 20:10:00,79.0,72.3,29.82,South,175,0.0,3.0,80,0.00,,---,0.00,26.00,VWS V14.01,2013-05-21 00:10:00,
2013-05-20 20:12:00,78.9,72.2,29.82,South,175,1.0,1.0,80,0.00,,---,0.00,26.00,VWS V14.01,2013-05-21 00:12:00,
2013-05-20 20:15:00,78.8,72.1,29.82,South,186,3.0,5.0,80,0.00,,---,0.00,28.00,VWS V14.01,2013-05-21 00:15:00,
2013-05-20 20:17:00,78.7,72.0,29.82,South,183,1.0,3.0,80,0.00,,---,0.00,23.00,VWS V14.01,2013-05-21 00:17:00,
2013-05-20 20:20:00,78.5,71.8,29.82,South,188,1.0,5.0,80,0.00,,---,0.00,14.00,VWS V14.01,2013-05-21 00:20:00,
2013-05-20 20:22:00,78.4,72.1,29.82,SSW,200,4.0,6.0,81,0.00,,---,0.00,12.00,VWS V14.01,2013-05-21 00:22:00,
2013-05-20 20:25:00,78.3,72.0,29.82,SSW,201,2.0,6.0,81,0.00,,---,0.00,11.00,VWS V14.01,2013-05-21 00:25:00,
2013-05-20 20:27:00,78.2,71.9,29.82,South,187,2.0,4.0,81,0.00,,---,0.00,9.00,VWS V14.01,2013-05-21 00:27:00,
2013-05-20 20:30:00,78.1,71.8,29.82,South,175,3.0,5.0,81,0.00,,---,0.00,7.00,VWS V14.01,2013-05-21 00:30:00,
2013-05-20 20:32:00,78.0,71.7,29.82,SSE,160,2.0,4.0,81,0.00,,---,0.00,5.00,VWS V14.01,2013-05-21 00:32:00,
2013-05-20 20:35:00,77.9,71.6,29.82,South,184,0.0,8.0,81,0.00,,---,0.00,5.00,VWS V14.01,2013-05-21 00:35:00,
2013-05-20 20:37:00,77.8,71.9,29.82,South,173,1.0,3.0,82,0.00,,---,0.00,0.00,VWS V14.01,2013-05-21 00:37:00,
2013-05-20 20:40:00,77.7,71.8,29.82,South,170,0.0,4.0,82,0.00,,---,0.00,0.00,VWS V14.01,2013-05-21 00:40:00,
2013-05-20 20:43:00,77.6,71.7,29.82,South,182,2.0,4.0,82,0.00,,---,0.00,0.00,VWS V14.01,2013-05-21 00:43:00,
2013-05-20 20:45:00,77.6,71.7,29.83,SSE,166,0.0,4.0,82,0.00,,---,0.00,0.00,VWS V14.01,2013-05-21 00:45:00,
2013-05-20 20:48:00,77.5,71.6,29.83,South,179,3.0,3.0,82,0.00,,---,0.00,0.00,VWS V14.01,2013-05-21 00:48:00,
2013-05-20 20:50:00,77.4,71.5,29.83,South,175,1.0,4.0,82,0.00,,---,0.00,0.00,VWS V14.01,2013-05-21 00:50:00,
2013-05-20 20:53:00,77.3,71.4,29.82,South,179,1.0,4.0,82,0.00,,---,0.00,0.00,VWS V14.01,2013-05-21 00:53:00,
2013-05-20 20:55:00,77.3,71.4,29.83,South,179,2.0,4.0,82,0.00,,---,0.00,0.00,VWS V14.01,2013-05-21 00:55:00,
2013-05-20 20:58:00,77.2,71.6,29.82,South,180,0.0,4.0,83,0.00,,---,0.00,0.00,VWS V14.01,2013-05-21 00:58:00,
2013-05-20 21:00:00,77.1,71.5,29.82,SSE,161,0.0,4.0,83,0.00,,---,0.00,0.00,VWS V14.01,2013-05-21 01:00:00,
2013-05-20 21:03:00,77.0,71.4,29.82,South,182,3.0,6.0,83,0.00,,---,0.00,0.00,VWS V14.01,2013-05-21 01:03:00,
2013-05-20 21:05:00,76.9,71.3,29.82,South,181,0.0,6.0,83,0.00,,---,0.00,0.00,VWS V14.01,2013-05-21 01:05:00,
2013-05-20 21:08:00,76.9,71.3,29.83,South,182,0.0,3.0,83,0.00,,---,0.00,0.00,VWS V14.01,2013-05-21 01:08:00,
2013-05-20 21:10:00,76.8,71.2,29.83,South,182,0.0,3.0,83,0.00,,---,0.00,0.00,VWS V14.01,2013-05-21 01:10:00,
2013-05-20 21:13:00,76.7,71.2,29.83,South,182,1.0,2.0,83,0.00,,---,0.00,0.00,VWS V14.01,2013-05-21 01:13:00,
2013-05-20 21:15:00,76.7,71.5,29.83,South,174,0.0,5.0,84,0.00,,---,0.00,0.00,VWS V14.01,2013-05-21 01:15:00,
2013-05-20 21:18:00,76.6,71.4,29.82,South,175,2.0,5.0,84,0.00,,---,0.00,0.00,VWS V14.01,2013-05-21 01:18:00,
2013-05-20 21:20:00,76.5,71.3,29.82,SSE,155,2.0,5.0,84,0.00,,---,0.00,0.00,VWS V14.01,2013-05-21 01:20:00,
2013-05-20 21:23:00,76.5,71.3,29.82,South,178,0.0,6.0,84,0.00,,---,0.00,0.00,VWS V14.01,2013-05-21 01:23:00,
2013-05-20 21:25:00,76.4,71.2,29.83,South,178,0.0,6.0,84,0.00,,---,0.00,0.00,VWS V14.01,2013-05-21 01:25:00,
2013-05-20 21:28:00,76.4,71.2,29.83,South,177,2.0,4.0,84,0.00,,---,0.00,0.00,VWS V14.01,2013-05-21 01:28:00,
2013-05-20 21:30:00,76.3,71.1,29.83,South,175,0.0,4.0,84,0.00,,---,0.00,0.00,VWS V14.01,2013-05-21 01:30:00,
2013-05-20 21:33:00,76.2,71.0,29.83,South,175,0.0,3.0,84,0.00,,---,0.00,0.00,VWS V14.01,2013-05-21 01:33:00,
2013-05-20 21:35:00,76.2,71.0,29.83,South,174,0.0,3.0,84,0.00,,---,0.00,0.00,VWS V14.01,2013-05-21 01:35:00,
2013-05-20 21:38:00,76.1,70.9,29.83,South,174,0.0,1.0,84,0.00,,---,0.00,0.00,VWS V14.01,2013-05-21 01:38:00,
2013-05-20 21:40:00,76.1,70.9,29.83,SSE,167,1.0,4.0,84,0.00,,---,0.00,0.00,VWS V14.01,2013-05-21 01:40:00,
2013-05-20 21:43:00,76.0,71.2,29.83,SSE,165,0.0,3.0,85,0.00,,---,0.00,0.00,VWS V14.01,2013-05-21 01:43:00,
2013-05-20 21:45:00,75.9,71.1,29.83,SSE,167,0.0,5.0,85,0.00,,---,0.00,0.00,VWS V14.01,2013-05-21 01:45:00,
2013-05-20 21:48:00,75.8,71.0,29.83,South,174,1.0,5.0,85,0.00,,---,0.00,0.00,VWS V14.01,2013-05-21 01:48:00,
2013-05-20 21:50:00,75.8,71.0,29.83,SSE,161,0.0,5.0,85,0.00,,---,0.00,0.00,VWS V14.01,2013-05-21 01:50:00,
2013-05-20 21:53:00,75.7,70.9,29.83,SSE,157,1.0,4.0,85,0.00,,---,0.00,0.00,VWS V14.01,2013-05-21 01:53:00,
2013-05-20 21:55:00,75.7,70.9,29.83,SSE,153,2.0,6.0,85,0.00,,---,0.00,0.00,VWS V14.01,2013-05-21 01:55:00,
2013-05-20 21:58:00,75.6,71.1,29.83,SSE,153,0.0,3.0,86,0.00,,---,0.00,0.00,VWS V14.01,2013-05-21 01:58:00,
2013-05-20 22:00:00,75.5,71.0,29.83,SSE,157,0.0,3.0,86,0.00,,---,0.00,0.00,VWS V14.01,2013-05-21 02:00:00,
2013-05-20 22:03:00,75.4,70.9,29.83,South,176,0.0,5.0,86,0.00,,---,0.00,0.00,VWS V14.01,2013-05-21 02:03:00,
2013-05-20 22:05:00,75.3,70.8,29.83,SSE,159,0.0,5.0,86,0.00,,---,0.00,0.00,VWS V14.01,2013-05-21 02:05:00,
2013-05-20 22:08:00,75.2,70.7,29.83,SSE,165,0.0,4.0,86,0.00,,---,0.00,0.00,VWS V14.01,2013-05-21 02:08:00,
2013-05-20 22:10:00,75.1,70.6,29.83,SE,140,2.0,4.0,86,0.00,,---,0.00,0.00,VWS V14.01,2013-05-21 02:10:00,
2013-05-20 22:13:00,75.0,70.9,29.83,South,170,2.0,5.0,87,0.00,,---,0.00,0.00,VWS V14.01,2013-05-21 02:13:00,
2013-05-20 22:15:00,74.9,70.8,29.83,SSE,163,0.0,6.0,87,0.00,,---,0.00,0.00,VWS V14.01,2013-05-21 02:15:00,
2013-05-20 22:18:00,74.8,70.7,29.83,SSE,157,0.0,4.0,87,0.00,,---,0.00,0.00,VWS V14.01,2013-05-21 02:18:00,
2013-05-20 22:20:00,74.7,70.6,29.83,SSE,161,1.0,4.0,87,0.00,,---,0.00,0.00,VWS V14.01,2013-05-21 02:20:00,
2013-05-20 22:23:00,74.6,70.5,29.83,SE,138,4.0,6.0,87,0.00,,---,0.00,0.00,VWS V14.01,2013-05-21 02:23:00,
2013-05-20 22:25:00,74.5,70.4,29.83,South,181,1.0,6.0,87,0.00,,---,0.00,0.00,VWS V14.01,2013-05-21 02:25:00,
2013-05-20 22:28:00,74.4,70.3,29.83,SE,146,3.0,6.0,87,0.00,,---,0.00,0.00,VWS V14.01,2013-05-21 02:28:00,
2013-05-20 22:30:00,74.3,70.5,29.83,South,182,2.0,6.0,88,0.00,,---,0.00,0.00,VWS V14.01,2013-05-21 02:30:00,
2013-05-20 22:33:00,74.2,70.4,29.83,South,171,0.0,6.0,88,0.00,,---,0.00,0.00,VWS V14.01,2013-05-21 02:33:00,
2013-05-20 22:35:00,74.1,70.3,29.82,South,177,3.0,6.0,88,0.00,,---,0.00,0.00,VWS V14.01,2013-05-21 02:35:00,
2013-05-20 22:38:00,74.0,70.2,29.82,SSE,150,3.0,5.0,88,0.00,,---,0.00,0.00,VWS V14.01,2013-05-21 02:38:00,
2013-05-20 22:40:00,74.0,70.2,29.82,South,169,2.0,5.0,88,0.00,,---,0.00,0.00,VWS V14.01,2013-05-21 02:40:00,
2013-05-20 22:43:00,73.9,70.5,29.82,South,178,3.0,4.0,89,0.00,,---,0.00,0.00,VWS V14.01,2013-05-21 02:43:00,
2013-05-20 22:45:00,73.8,70.4,29.82,SSE,167,1.0,7.0,89,0.00,,---,0.00,0.00,VWS V14.01,2013-05-21 02:45:00,
2013-05-20 22:48:00,73.7,70.3,29.82,SSE,153,0.0,6.0,89,0.00,,---,0.00,0.00,VWS V14.01,2013-05-21 02:48:00,
2013-05-20 22:50:00,73.7,70.3,29.82,South,185,3.0,6.0,89,0.00,,---,0.00,0.00,VWS V14.01,2013-05-21 02:50:00,
2013-05-20 22:53:00,73.6,70.2,29.82,SSE,163,1.0,6.0,89,0.00,,---,0.00,0.00,VWS V14.01,2013-05-21 02:53:00,
2013-05-20 22:55:00,73.6,70.5,29.82,SSE,150,0.0,10.0,90,0.00,,---,0.00,0.00,VWS V14.01,2013-05-21 02:55:00,
2013-05-20 22:58:00,73.5,70.4,29.82,South,183,1.0,6.0,90,0.00,,---,0.00,0.00,VWS V14.01,2013-05-21 02:58:00,
2013-05-20 23:00:00,73.5,70.4,29.83,South,178,2.0,6.0,90,0.00,,---,0.00,0.00,VWS V14.01,2013-05-21 03:00:00,
2013-05-20 23:03:00,73.4,70.3,29.82,SSE,150,1.0,6.0,90,0.00,,---,0.00,0.00,VWS V14.01,2013-05-21 03:03:00,
2013-05-20 23:05:00,73.3,70.2,29.82,SSE,148,1.0,9.0,90,0.00,,---,0.00,0.00,VWS V14.01,2013-05-21 03:05:00,
2013-05-20 23:08:00,73.3,70.2,29.82,SSE,163,2.0,2.0,90,0.00,,---,0.00,0.00,VWS V14.01,2013-05-21 03:08:00,
2013-05-20 23:10:00,73.3,70.2,29.82,SSE,157,5.0,6.0,90,0.00,,---,0.00,0.00,VWS V14.01,2013-05-21 03:10:00,
2013-05-20 23:13:00,73.2,70.1,29.82,South,172,2.0,8.0,90,0.00,,---,0.00,0.00,VWS V14.01,2013-05-21 03:13:00,
2013-05-20 23:15:00,73.2,70.1,29.82,SSE,150,1.0,8.0,90,0.00,,---,0.00,0.00,VWS V14.01,2013-05-21 03:15:00,
2013-05-20 23:19:00,73.1,70.3,29.82,South,177,2.0,5.0,91,0.00,,---,0.00,0.00,VWS V14.01,2013-05-21 03:19:00,
2013-05-20 23:20:00,73.1,70.3,29.81,SSE,148,5.0,5.0,91,0.00,,---,0.00,0.00,VWS V14.01,2013-05-21 03:20:00,
2013-05-20 23:24:00,73.0,70.2,29.81,South,180,4.0,9.0,91,0.00,,---,0.00,0.00,VWS V14.01,2013-05-21 03:24:00,
2013-05-20 23:25:00,73.0,70.2,29.81,SSE,152,0.0,9.0,91,0.00,,---,0.00,0.00,VWS V14.01,2013-05-21 03:25:00,
2013-05-20 23:29:00,72.9,70.1,29.81,SSE,167,3.0,6.0,91,0.00,,---,0.00,0.00,VWS V14.01,2013-05-21 03:29:00,
2013-05-20 23:30:00,72.9,70.1,29.81,SSE,157,0.0,6.0,91,0.00,,---,0.00,0.00,VWS V14.01,2013-05-21 03:30:00,
2013-05-20 23:34:00,72.8,70.0,29.81,SSE,160,3.0,4.0,91,0.00,,---,0.00,0.00,VWS V14.01,2013-05-21 03:34:00,
2013-05-20 23:35:00,72.8,70.0,29.81,SSE,166,4.0,6.0,91,0.00,,---,0.00,0.00,VWS V14.01,2013-05-21 03:35:00,
2013-05-20 23:39:00,72.7,69.9,29.81,South,173,0.0,7.0,91,0.00,,---,0.00,0.00,VWS V14.01,2013-05-21 03:39:00,
2013-05-20 23:40:00,72.7,69.9,29.81,SE,140,2.0,8.0,91,0.00,,---,0.00,0.00,VWS V14.01,2013-05-21 03:40:00,
2013-05-20 23:44:00,72.6,70.2,29.81,South,181,0.0,5.0,92,0.00,,---,0.00,0.00,VWS V14.01,2013-05-21 03:44:00,
2013-05-20 23:45:00,72.6,70.2,29.81,South,172,2.0,5.0,92,0.00,,---,0.00,0.00,VWS V14.01,2013-05-21 03:45:00,
2013-05-20 23:49:00,72.5,70.1,29.81,South,172,2.0,3.0,92,0.00,,---,0.00,0.00,VWS V14.01,2013-05-21 03:49:00,
2013-05-20 23:50:00,72.5,70.1,29.81,South,184,4.0,5.0,92,0.00,,---,0.00,0.00,VWS V14.01,2013-05-21 03:50:00,
2013-05-20 23:54:00,72.4,69.9,29.81,South,185,4.0,6.0,92,0.00,,---,0.00,0.00,VWS V14.01,2013-05-21 03:54:00,
2013-05-20 23:55:00,72.4,69.9,29.81,SSE,158,2.0,6.0,92,0.00,,---,0.00,0.00,VWS V14.01,2013-05-21 03:55:00,
2013-05-20 23:59:00,72.3,69.8,29.81,SSE,161,1.0,10.0,92,0.00,,---,0.00,0.00,VWS V14.01,2013-05-21 03:59:00,